Time,TemperatureF,DewpointF,PressureIn,WindDirection,WindDirectionDegrees,WindSpeedMPH,WindSpeedGustMPH,Humidity,HourlyPrecipIn,Conditions,Clouds,dailyrainin,SoftwareType,DateUTC
2013-04-01 00:03:00,42.0,38.0,29.74,North,-999,-999.0,-999.0,86,0.04,,,0.05,,2013-04-01 04:03:00,
2013-04-01 00:14:00,42.0,38.0,29.74,North,-999,-999.0,-999.0,86,0.04,,,0.05,,2013-04-01 04:14:00,
2013-04-01 00:23:00,42.0,39.0,29.73,North,-999,-999.0,-999.0,88,0.03,,,0.05,,2013-04-01 04:23:00,
2013-04-01 00:33:00,43.0,40.0,29.72,North,-999,-999.0,-999.0,89,0.05,,,0.07,,2013-04-01 04:33:00,
2013-04-01 00:43:00,43.0,40.0,29.72,North,-999,-999.0,-999.0,89,0.05,,,0.07,,2013-04-01 04:43:00,
2013-04-01 00:53:00,43.0,40.0,29.70,North,-999,-999.0,-999.0,90,0.04,,,0.07,,2013-04-01 04:53:00,
2013-04-01 01:03:00,43.0,41.0,29.69,North,-999,-999.0,-999.0,91,0.03,,,0.08,,2013-04-01 05:03:00,
2013-04-01 01:13:00,43.0,41.0,29.69,North,-999,-999.0,-999.0,91,0.03,,,0.08,,2013-04-01 05:13:00,
2013-04-01 01:22:00,43.0,41.0,29.67,North,-999,-999.0,-999.0,92,0.05,,,0.10,,2013-04-01 05:22:00,
2013-04-01 01:33:00,43.0,41.0,29.65,North,-999,-999.0,-999.0,93,0.05,,,0.12,,2013-04-01 05:33:00,
2013-04-01 01:43:00,43.0,41.0,29.65,North,-999,-999.0,-999.0,93,0.05,,,0.12,,2013-04-01 05:43:00,
2013-04-01 01:52:00,43.0,41.0,29.64,North,-999,-999.0,-999.0,93,0.05,,,0.12,,2013-04-01 05:52:00,
2013-04-01 02:02:00,44.0,42.0,29.63,North,-999,-999.0,-999.0,93,0.05,,,0.13,,2013-04-01 06:02:00,
2013-04-01 02:13:00,44.0,42.0,29.63,North,-999,-999.0,-999.0,93,0.05,,,0.13,,2013-04-01 06:13:00,
2013-04-01 02:23:00,44.0,42.0,29.61,North,-999,-999.0,-999.0,93,0.03,,,0.13,,2013-04-01 06:23:00,
2013-04-01 02:33:00,44.0,42.0,29.59,North,-999,-999.0,-999.0,93,0.01,,,0.13,,2013-04-01 06:33:00,
2013-04-01 02:43:00,44.0,42.0,29.59,North,-999,-999.0,-999.0,93,0.01,,,0.13,,2013-04-01 06:43:00,
2013-04-01 02:52:00,44.0,42.0,29.59,North,-999,-999.0,-999.0,94,0.01,,,0.13,,2013-04-01 06:52:00,
2013-04-01 03:03:00,44.0,42.0,29.59,North,-999,-999.0,-999.0,94,0.02,,,0.15,,2013-04-01 07:03:00,
2013-04-01 03:13:00,44.0,42.0,29.59,North,-999,-999.0,-999.0,94,0.02,,,0.15,,2013-04-01 07:13:00,
2013-04-01 03:22:00,43.0,41.0,29.58,North,-999,-999.0,-999.0,94,0.02,,,0.15,,2013-04-01 07:22:00,
2013-04-01 03:32:00,43.0,41.0,29.57,North,-999,-999.0,-999.0,94,0.02,,,0.15,,2013-04-01 07:32:00,
2013-04-01 03:42:00,43.0,41.0,29.57,North,-999,-999.0,-999.0,94,0.02,,,0.15,,2013-04-01 07:42:00,
2013-04-01 03:52:00,42.0,40.0,29.57,North,-999,-999.0,-999.0,94,0.02,,,0.15,,2013-04-01 07:52:00,
2013-04-01 04:03:00,42.0,40.0,29.58,North,-999,-999.0,-999.0,94,0.00,,,0.15,,2013-04-01 08:03:00,
2013-04-01 04:12:00,42.0,40.0,29.58,North,-999,-999.0,-999.0,94,0.00,,,0.15,,2013-04-01 08:12:00,
2013-04-01 04:22:00,41.0,39.0,29.57,North,-999,-999.0,-999.0,94,0.00,,,0.15,,2013-04-01 08:22:00,
2013-04-01 04:32:00,41.0,39.0,29.56,North,-999,-999.0,-999.0,94,0.00,,,0.15,,2013-04-01 08:32:00,
2013-04-01 04:43:00,41.0,39.0,29.56,North,-999,-999.0,-999.0,94,0.00,,,0.15,,2013-04-01 08:43:00,
2013-04-01 04:52:00,41.0,39.0,29.56,North,-999,-999.0,-999.0,94,0.00,,,0.15,,2013-04-01 08:52:00,
2013-04-01 05:02:00,41.0,39.0,29.58,North,-999,-999.0,-999.0,94,0.00,,,0.15,,2013-04-01 09:02:00,
2013-04-01 05:12:00,41.0,39.0,29.58,North,-999,-999.0,-999.0,94,0.00,,,0.15,,2013-04-01 09:12:00,
2013-04-01 05:23:00,41.0,39.0,29.58,North,-999,-999.0,-999.0,94,0.00,,,0.15,,2013-04-01 09:23:00,
2013-04-01 05:33:00,41.0,39.0,29.58,North,-999,-999.0,-999.0,94,0.01,,,0.16,,2013-04-01 09:33:00,
2013-04-01 05:43:00,41.0,39.0,29.58,North,-999,-999.0,-999.0,94,0.01,,,0.16,,2013-04-01 09:43:00,
2013-04-01 05:53:00,41.0,39.0,29.59,North,-999,-999.0,-999.0,94,0.01,,,0.16,,2013-04-01 09:53:00,
2013-04-01 06:03:00,41.0,39.0,29.60,North,-999,-999.0,-999.0,94,0.01,,,0.16,,2013-04-01 10:03:00,
2013-04-01 06:13:00,41.0,39.0,29.60,North,-999,-999.0,-999.0,94,0.01,,,0.16,,2013-04-01 10:13:00,
2013-04-01 06:23:00,41.0,39.0,29.61,North,-999,-999.0,-999.0,94,0.01,,,0.16,,2013-04-01 10:23:00,
2013-04-01 06:33:00,41.0,39.0,29.61,North,-999,-999.0,-999.0,94,0.00,,,0.16,,2013-04-01 10:33:00,
2013-04-01 06:42:00,41.0,39.0,29.61,North,-999,-999.0,-999.0,94,0.00,,,0.16,,2013-04-01 10:42:00,
2013-04-01 06:53:00,41.0,39.0,29.62,North,-999,-999.0,-999.0,94,0.00,,,0.16,,2013-04-01 10:53:00,
2013-04-01 07:03:00,40.0,38.0,29.62,North,-999,-999.0,-999.0,94,0.00,,,0.16,,2013-04-01 11:03:00,
2013-04-01 07:13:00,40.0,38.0,29.62,North,-999,-999.0,-999.0,94,0.00,,,0.16,,2013-04-01 11:13:00,
2013-04-01 07:23:00,40.0,38.0,29.63,North,-999,-999.0,-999.0,94,0.00,,,0.16,,2013-04-01 11:23:00,
2013-04-01 07:33:00,40.0,38.0,29.64,North,-999,-999.0,-999.0,94,0.00,,,0.16,,2013-04-01 11:33:00,
2013-04-01 07:42:00,40.0,38.0,29.64,North,-999,-999.0,-999.0,94,0.00,,,0.16,,2013-04-01 11:42:00,
2013-04-01 07:52:00,41.0,39.0,29.64,North,-999,-999.0,-999.0,94,0.00,,,0.16,,2013-04-01 11:52:00,
2013-04-01 08:03:00,41.0,39.0,29.64,North,-999,-999.0,-999.0,93,0.00,,,0.16,,2013-04-01 12:03:00,
2013-04-01 08:12:00,41.0,39.0,29.64,North,-999,-999.0,-999.0,93,0.00,,,0.16,,2013-04-01 12:12:00,
2013-04-01 08:23:00,41.0,39.0,29.63,North,-999,-999.0,-999.0,93,0.00,,,0.16,,2013-04-01 12:23:00,
2013-04-01 08:32:00,42.0,40.0,29.63,North,-999,-999.0,-999.0,93,0.00,,,0.16,,2013-04-01 12:32:00,
2013-04-01 08:42:00,42.0,40.0,29.63,North,-999,-999.0,-999.0,93,0.00,,,0.16,,2013-04-01 12:42:00,
2013-04-01 08:52:00,43.0,41.0,29.63,North,-999,-999.0,-999.0,92,0.00,,,0.16,,2013-04-01 12:52:00,
2013-04-01 09:03:00,44.0,41.0,29.63,North,-999,-999.0,-999.0,89,0.00,,,0.16,,2013-04-01 13:03:00,
2013-04-01 09:12:00,44.0,41.0,29.63,North,-999,-999.0,-999.0,89,0.00,,,0.16,,2013-04-01 13:12:00,
2013-04-01 09:22:00,45.0,41.0,29.63,North,-999,-999.0,-999.0,85,0.00,,,0.16,,2013-04-01 13:22:00,
2013-04-01 09:33:00,45.0,40.0,29.63,North,-999,-999.0,-999.0,83,0.00,,,0.16,,2013-04-01 13:33:00,
2013-04-01 09:42:00,45.0,40.0,29.63,North,-999,-999.0,-999.0,83,0.00,,,0.16,,2013-04-01 13:42:00,
2013-04-01 09:52:00,46.0,41.0,29.64,North,-999,-999.0,-999.0,82,0.00,,,0.16,,2013-04-01 13:52:00,
2013-04-01 10:04:00,47.0,41.0,29.63,North,-999,-999.0,-999.0,79,0.00,,,0.16,,2013-04-01 14:04:00,
2013-04-01 10:12:00,47.0,41.0,29.63,North,-999,-999.0,-999.0,79,0.00,,,0.16,,2013-04-01 14:12:00,
2013-04-01 10:22:00,48.0,41.0,29.63,North,-999,-999.0,-999.0,77,0.00,,,0.16,,2013-04-01 14:22:00,
2013-04-01 10:33:00,49.0,40.0,29.62,North,-999,-999.0,-999.0,72,0.00,,,0.16,,2013-04-01 14:33:00,
2013-04-01 10:42:00,49.0,40.0,29.62,North,-999,-999.0,-999.0,72,0.00,,,0.16,,2013-04-01 14:42:00,
2013-04-01 10:52:00,51.0,40.0,29.62,North,-999,-999.0,-999.0,67,0.00,,,0.16,,2013-04-01 14:52:00,
2013-04-01 11:03:00,52.0,40.0,29.62,North,-999,-999.0,-999.0,64,0.00,,,0.16,,2013-04-01 15:03:00,
2013-04-01 11:13:00,52.0,40.0,29.62,North,-999,-999.0,-999.0,64,0.00,,,0.16,,2013-04-01 15:13:00,
2013-04-01 11:22:00,53.0,41.0,29.62,North,-999,-999.0,-999.0,64,0.00,,,0.16,,2013-04-01 15:22:00,
2013-04-01 11:34:00,54.0,39.0,29.61,North,-999,-999.0,-999.0,57,0.00,,,0.16,,2013-04-01 15:34:00,
2013-04-01 11:43:00,54.0,39.0,29.61,North,-999,-999.0,-999.0,57,0.00,,,0.16,,2013-04-01 15:43:00,
2013-04-01 11:53:00,55.0,39.0,29.60,North,-999,-999.0,-999.0,55,0.00,,,0.16,,2013-04-01 15:53:00,
2013-04-01 12:03:00,56.0,40.0,29.59,North,-999,-999.0,-999.0,54,0.00,,,0.16,,2013-04-01 16:03:00,
2013-04-01 12:13:00,56.0,40.0,29.59,North,-999,-999.0,-999.0,54,0.00,,,0.16,,2013-04-01 16:13:00,
2013-04-01 12:23:00,56.0,40.0,29.59,North,-999,-999.0,-999.0,54,0.00,,,0.16,,2013-04-01 16:23:00,
2013-04-01 12:33:00,58.0,40.0,29.57,North,-999,-999.0,-999.0,51,0.00,,,0.16,,2013-04-01 16:33:00,
2013-04-01 12:43:00,58.0,40.0,29.57,North,-999,-999.0,-999.0,51,0.00,,,0.16,,2013-04-01 16:43:00,
2013-04-01 12:53:00,60.0,40.0,29.57,North,-999,-999.0,-999.0,47,0.00,,,0.16,,2013-04-01 16:53:00,
2013-04-01 13:03:00,60.0,40.0,29.57,North,-999,-999.0,-999.0,47,0.00,,,0.16,,2013-04-01 17:03:00,
2013-04-01 13:13:00,60.0,40.0,29.57,North,-999,-999.0,-999.0,47,0.00,,,0.16,,2013-04-01 17:13:00,
2013-04-01 13:23:00,61.0,40.0,29.56,North,-999,-999.0,-999.0,45,0.00,,,0.16,,2013-04-01 17:23:00,
2013-04-01 13:32:00,61.0,40.0,29.56,North,-999,-999.0,-999.0,45,0.00,,,0.16,,2013-04-01 17:32:00,
2013-04-01 13:42:00,61.0,40.0,29.56,North,-999,-999.0,-999.0,45,0.00,,,0.16,,2013-04-01 17:42:00,
2013-04-01 13:53:00,59.0,37.0,29.54,North,-999,-999.0,-999.0,43,0.00,,,0.16,,2013-04-01 17:53:00,
2013-04-01 14:03:00,59.0,38.0,29.54,North,-999,-999.0,-999.0,46,0.00,,,0.16,,2013-04-01 18:03:00,
2013-04-01 14:12:00,59.0,38.0,29.54,North,-999,-999.0,-999.0,46,0.00,,,0.16,,2013-04-01 18:12:00,
2013-04-01 14:22:00,59.0,38.0,29.54,North,-999,-999.0,-999.0,45,0.00,,,0.16,,2013-04-01 18:22:00,
2013-04-01 14:33:00,58.0,37.0,29.53,North,-999,-999.0,-999.0,46,0.00,,,0.16,,2013-04-01 18:33:00,
2013-04-01 14:43:00,58.0,37.0,29.53,North,-999,-999.0,-999.0,46,0.00,,,0.16,,2013-04-01 18:43:00,
2013-04-01 14:53:00,58.0,37.0,29.53,North,-999,-999.0,-999.0,46,0.00,,,0.16,,2013-04-01 18:53:00,
2013-04-01 15:03:00,59.0,35.0,29.52,North,-999,-999.0,-999.0,41,0.00,,,0.16,,2013-04-01 19:03:00,
2013-04-01 15:13:00,59.0,35.0,29.52,North,-999,-999.0,-999.0,41,0.00,,,0.16,,2013-04-01 19:13:00,
2013-04-01 15:23:00,59.0,35.0,29.51,North,-999,-999.0,-999.0,40,0.00,,,0.16,,2013-04-01 19:23:00,
2013-04-01 15:32:00,60.0,36.0,29.51,North,-999,-999.0,-999.0,41,0.00,,,0.16,,2013-04-01 19:32:00,
2013-04-01 15:42:00,60.0,36.0,29.51,North,-999,-999.0,-999.0,41,0.00,,,0.16,,2013-04-01 19:42:00,
2013-04-01 15:53:00,60.0,36.0,29.51,North,-999,-999.0,-999.0,41,0.00,,,0.16,,2013-04-01 19:53:00,
2013-04-01 16:02:00,50.0,40.0,29.54,North,-999,-999.0,-999.0,69,0.00,,,0.16,,2013-04-01 20:02:00,
2013-04-01 16:13:00,50.0,40.0,29.54,North,-999,-999.0,-999.0,69,0.00,,,0.16,,2013-04-01 20:13:00,
2013-04-01 16:23:00,48.0,40.0,29.54,North,-999,-999.0,-999.0,73,0.00,,,0.16,,2013-04-01 20:23:00,
2013-04-01 16:33:00,47.0,39.0,29.56,North,-999,-999.0,-999.0,74,0.00,,,0.16,,2013-04-01 20:33:00,
2013-04-01 16:43:00,47.0,39.0,29.56,North,-999,-999.0,-999.0,74,0.00,,,0.16,,2013-04-01 20:43:00,
2013-04-01 16:52:00,46.0,40.0,29.57,North,-999,-999.0,-999.0,80,0.01,,,0.17,,2013-04-01 20:52:00,
2013-04-01 17:02:00,46.0,41.0,29.57,North,-999,-999.0,-999.0,83,0.01,,,0.17,,2013-04-01 21:02:00,
2013-04-01 17:12:00,46.0,41.0,29.57,North,-999,-999.0,-999.0,83,0.01,,,0.17,,2013-04-01 21:12:00,
2013-04-01 17:23:00,47.0,40.0,29.59,North,-999,-999.0,-999.0,76,0.01,,,0.17,,2013-04-01 21:23:00,
2013-04-01 17:33:00,45.0,35.0,29.62,North,-999,-999.0,-999.0,67,0.01,,,0.17,,2013-04-01 21:33:00,
2013-04-01 17:43:00,45.0,35.0,29.62,North,-999,-999.0,-999.0,67,0.01,,,0.17,,2013-04-01 21:43:00,
2013-04-01 17:53:00,43.0,31.0,29.63,North,-999,-999.0,-999.0,62,0.00,,,0.17,,2013-04-01 21:53:00,
2013-04-01 18:03:00,43.0,30.0,29.64,North,-999,-999.0,-999.0,60,0.00,,,0.17,,2013-04-01 22:03:00,
2013-04-01 18:13:00,43.0,30.0,29.64,North,-999,-999.0,-999.0,60,0.00,,,0.17,,2013-04-01 22:13:00,
2013-04-01 18:23:00,42.0,27.0,29.65,North,-999,-999.0,-999.0,54,0.00,,,0.17,,2013-04-01 22:23:00,
2013-04-01 18:33:00,41.0,26.0,29.65,North,-999,-999.0,-999.0,55,0.00,,,0.17,,2013-04-01 22:33:00,
2013-04-01 18:43:00,41.0,26.0,29.65,North,-999,-999.0,-999.0,55,0.00,,,0.17,,2013-04-01 22:43:00,
2013-04-01 18:52:00,40.0,25.0,29.66,North,-999,-999.0,-999.0,54,0.00,,,0.17,,2013-04-01 22:52:00,
2013-04-01 19:02:00,40.0,24.0,29.67,North,-999,-999.0,-999.0,53,0.00,,,0.17,,2013-04-01 23:02:00,
2013-04-01 19:12:00,40.0,24.0,29.67,North,-999,-999.0,-999.0,53,0.00,,,0.17,,2013-04-01 23:12:00,
2013-04-01 19:23:00,40.0,23.0,29.67,North,-999,-999.0,-999.0,50,0.00,,,0.17,,2013-04-01 23:23:00,
2013-04-01 19:32:00,40.0,24.0,29.67,North,-999,-999.0,-999.0,52,0.00,,,0.17,,2013-04-01 23:32:00,
2013-04-01 19:43:00,40.0,24.0,29.67,North,-999,-999.0,-999.0,52,0.00,,,0.17,,2013-04-01 23:43:00,
2013-04-01 19:53:00,39.0,22.0,29.69,North,-999,-999.0,-999.0,51,0.00,,,0.17,,2013-04-01 23:53:00,
2013-04-01 20:03:00,39.0,21.0,29.69,North,-999,-999.0,-999.0,49,0.00,,,0.17,,2013-04-02 00:03:00,
2013-04-01 20:12:00,39.0,21.0,29.69,North,-999,-999.0,-999.0,49,0.00,,,0.17,,2013-04-02 00:12:00,
2013-04-01 20:22:00,39.0,20.0,29.69,North,-999,-999.0,-999.0,46,0.00,,,0.17,,2013-04-02 00:22:00,
2013-04-01 20:33:00,38.0,14.0,29.70,North,-999,-999.0,-999.0,37,0.00,,,0.17,,2013-04-02 00:33:00,
2013-04-01 20:42:00,38.0,14.0,29.70,North,-999,-999.0,-999.0,37,0.00,,,0.17,,2013-04-02 00:42:00,
2013-04-01 20:53:00,38.0,15.0,29.73,North,-999,-999.0,-999.0,38,0.00,,,0.17,,2013-04-02 00:53:00,
2013-04-01 21:02:00,37.0,13.0,29.74,North,-999,-999.0,-999.0,37,0.00,,,0.17,,2013-04-02 01:02:00,
2013-04-01 21:12:00,37.0,13.0,29.74,North,-999,-999.0,-999.0,37,0.00,,,0.17,,2013-04-02 01:12:00,
2013-04-01 21:22:00,37.0,13.0,29.74,North,-999,-999.0,-999.0,37,0.00,,,0.17,,2013-04-02 01:22:00,
2013-04-01 21:32:00,36.0,10.0,29.75,North,-999,-999.0,-999.0,34,0.00,,,0.17,,2013-04-02 01:32:00,
2013-04-01 21:42:00,36.0,10.0,29.75,North,-999,-999.0,-999.0,34,0.00,,,0.17,,2013-04-02 01:42:00,
2013-04-01 21:53:00,35.0,11.0,29.75,North,-999,-999.0,-999.0,37,0.00,,,0.17,,2013-04-02 01:53:00,
2013-04-01 22:03:00,35.0,10.0,29.76,North,-999,-999.0,-999.0,35,0.00,,,0.17,,2013-04-02 02:03:00,
2013-04-01 22:12:00,35.0,10.0,29.76,North,-999,-999.0,-999.0,35,0.00,,,0.17,,2013-04-02 02:12:00,
2013-04-01 22:22:00,35.0,11.0,29.76,North,-999,-999.0,-999.0,36,0.00,,,0.17,,2013-04-02 02:22:00,
2013-04-01 22:32:00,35.0,9.0,29.77,WNW,296,7.0,20.0,34,0.00,,,0.17,,2013-04-02 02:32:00,
2013-04-01 22:42:00,35.0,9.0,29.77,WNW,296,7.0,20.0,34,0.00,,,0.17,,2013-04-02 02:42:00,
2013-04-01 22:53:00,34.0,9.0,29.77,NW,315,6.0,18.0,35,0.00,,,0.17,,2013-04-02 02:53:00,
2013-04-01 23:02:00,34.0,10.0,29.78,West,281,5.0,16.0,36,0.00,,,0.17,,2013-04-02 03:02:00,
2013-04-01 23:12:00,34.0,10.0,29.78,West,281,5.0,16.0,36,0.00,,,0.17,,2013-04-02 03:12:00,
2013-04-01 23:22:00,34.0,11.0,29.78,North,-999,-999.0,-999.0,37,0.00,,,0.15,,2013-04-02 03:22:00,
2013-04-01 23:33:00,33.0,10.0,29.78,North,-999,-999.0,-999.0,38,0.00,,,0.15,,2013-04-02 03:33:00,
2013-04-01 23:43:00,33.0,10.0,29.78,North,-999,-999.0,-999.0,38,0.00,,,0.15,,2013-04-02 03:43:00,
2013-04-01 23:53:00,33.0,11.0,29.79,North,-999,-999.0,-999.0,39,0.00,,,0.15,,2013-04-02 03:53:00,